Location: Sternwarte_Laufen
(47.9344°N, 12.9346°E)
Time: 13:20:33
(UTC+01:00)

N. Korean satellite - Visible Passes

Search period start: 29 January 2023 00:00
Search period end: 08 February 2023 00:00
Orbit: 407 x 444 km, 97.3° (Epoch: 28 January)

Date Brightness Start Highest point End Pass type
(mag) Time Alt. Az. Time Alt. Az. Time Alt. Az.
29 Jan 7.3 05:19:43 10° NNE 05:22:50 46° E 05:25:58 10° S visible
29 Jan 8.2 06:53:24 10° NW 06:54:45 12° WNW 06:56:07 10° W visible
30 Jan 9.5 04:38:29 10° ENE 04:40:17 14° E 04:42:05 10° SE visible
30 Jan 6.8 06:09:44 10° N 06:12:42 35° WNW 06:15:42 10° SW visible
31 Jan 6.8 05:27:11 10° NNE 05:30:23 59° ESE 05:33:34 10° S visible
31 Jan 8.4 07:01:46 10° NW 07:02:12 10° WNW 07:02:39 10° WNW visible
01 Feb 9.2 04:45:30 10° NE 04:47:44 17° E 04:49:57 10° SE visible
01 Feb 7.1 06:17:13 10° N 06:20:04 29° WNW 06:22:55 10° SW visible
02 Feb 6.4 05:34:23 10° NNE 05:37:37 75° ESE 05:40:52 10° S visible
02 Feb 9.6 17:39:03 10° SW 17:40:48 14° W 17:42:35 10° WNW visible
03 Feb 8.9 04:52:21 10° NE 04:54:53 21° E 04:57:24 10° SE visible
03 Feb 7.4 06:24:25 10° NNW 06:27:07 24° WNW 06:29:49 10° SW visible
04 Feb 6.2 05:41:20 10° NNE 05:44:35 88° WNW 05:47:50 10° SSW visible
04 Feb 9.9 17:46:32 10° WSW 17:47:45 12° W 17:48:58 10° WNW visible
05 Feb 8.6 04:59:00 10° NE 05:01:44 25° E 05:04:29 10° SSE visible
05 Feb 7.6 06:31:23 10° NNW 06:33:54 21° WNW 06:36:24 10° WSW visible
06 Feb 6.1 05:48:00 10° N 05:51:15 72° WNW 05:54:30 10° SSW visible
07 Feb 8.3 05:05:24 10° NNE 05:08:19 29° E 05:11:14 10° SSE visible
07 Feb 7.8 06:38:06 10° NNW 06:40:23 18° WNW 06:42:40 10° WSW visible
